Regional Weather Roundup
Issued by NWS Little Rock, AR

Home | Current Version | Previous Version | Graphics & Text | Print | Product List | Glossary On
Versions: 1 2 3 4 5 6 7 8 9 10 11 12 13 14 15 16 17 18 19 20 21 22 23 24 25 26 27 28 29 30 31 32 33 34 35 36 37 38 39 40 41 42 43 44 45 46 47 48 49 50
000
ASUS44 KLZK 311305
RWRLZK

WEATHER ROUNDUP FOR ARKANSAS
NATIONAL WEATHER SERVICE LITTLE ROCK AR
800 AM CDT THU JUL 31 2014

NOTE: "FAIR" INDICATES FEW OR NO CLOUDS BELOW 12,000 FEET WITH NO
SIGNIFICANT WEATHER AND/OR OBSTRUCTIONS TO VISIBILITY.

ARZ001-003-010-029-311400-
NORTHWEST ARKANSAS

CITY           SKY/WX    TMP DP  RH WIND       PRES   REMARKS
FAYETTEVILLE   CLOUDY    66  65  96 CALM      30.10R
FORT SMITH     LGT RAIN  67  64  90 SE5       30.08R
HARRISON       CLOUDY    66  66 100 E5        30.11S
BENTONVILLE    CLOUDY    66  64  94 E3        30.11R
ROGERS         RAIN      66  64  93 E6        30.11S
SILOAM SPGS    CLOUDY    66  61  82 SE3       30.11R
HIGHFILL       CLOUDY    66  66 100 E3        30.10R
SPRINGDALE     CLOUDY    66  66 100 E3        30.12R
$$

ARZ004-005-016-311400-
NORTH CENTRAL ARKANSAS

CITY           SKY/WX    TMP DP  RH WIND       PRES   REMARKS
BATESVILLE     CLOUDY    66  66 100 CALM      30.11R
FLIPPIN        CLOUDY    66  64  94 CALM      30.10S
MTN HOME       CLOUDY    67  67 100 CALM      30.09S FOG
$$

ARZ040-041-311400-
WEST CENTRAL ARKANSAS

CITY           SKY/WX    TMP DP  RH WIND       PRES   REMARKS
MENA           CLOUDY    66  64  94 CALM      30.09S
MOUNT IDA      LGT RAIN  65  64  97 CALM      30.08R FOG
$$

ARZ009-017-025-026-028-311400-
NORTHEAST ARKANSAS

CITY           SKY/WX    TMP DP  RH WIND       PRES   REMARKS
JONESBORO      LGT RAIN  67  65  93 SW8       30.11R FOG
NEWPORT        LGT RAIN  67  67 100 VRB5      30.12R FOG
WALNUT RIDGE   CLOUDY    68  64  88 S8        30.10R
BLYTHEVILLE    CLOUDY    71  68  90 CALM      30.10S
$$

ARZ022-023-033-042-044-311400-
CENTRAL ARKANSAS

CITY           SKY/WX    TMP DP  RH WIND       PRES   REMARKS
LITTLE ROCK    CLOUDY    68  64  87 E3        30.10S
N LITTLE ROCK    N/A     67  66  99 E5        30.10S
JACKSONVILLE   DRIZZLE   67  66  96 SE2       30.10S FOG
SEARCY         CLOUDY    67  67 100 CALM      30.12R FOG
HOT SPRINGS    LGT RAIN  66  64  93 E5        30.11S
RUSSELLVILLE   LGT RAIN  67  65  93 CALM      30.10R FOG
CLINTON        CLOUDY    66  66 100 CALM      30.11S FOG
$$

ARZ036-311400-
EAST ARKANSAS

CITY           SKY/WX    TMP DP  RH WIND       PRES   REMARKS
WEST MEMPHIS   CLOUDY    68  68 100 VRB3      30.09S
$$

ARZ050-053-066-070-073-311400-
SOUTHWEST ARKANSAS

CITY           SKY/WX    TMP DP  RH WIND       PRES   REMARKS
ARKADELPHIA    RAIN      67  67 100 NE5       30.10R FOG
CAMDEN         HVY RAIN  66  64  94 E6        30.07F
TEXARKANA      LGT RAIN  67  66  97 E6        30.06S FOG
EL DORADO      LGT RAIN  67  66  97 NE6       30.07S FOG
DE QUEEN       HVY RAIN  65  64  97 E7        30.04S FOG
$$

ARZ056-057-069-311400-
SOUTHEAST ARKANSAS

CITY           SKY/WX    TMP DP  RH WIND       PRES   REMARKS
PINE BLUFF     CLOUDY    67  65  93 E3        30.09S
STUTTGART      CLOUDY    66  64  94 E7        30.10S
MONTICELLO     CLOUDY    68  66  93 E3        30.08R FOG

$$





USA.gov is the U.S. government's official web portal to all federal, state and local government web resources and services.